Regional Weather Roundup
Issued by NWS

Home | Current Version | Previous Version | Graphics & Text | Print | Product List | Glossary On
Versions: 1 2 3 4 5 6 7 8 9 10 11 12 13 14 15 16 17 18 19 20 21 22 23 24 25 26 27 28 29 30 31 32 33 34 35 36 37 38 39 40 41 42 43 44 45 46 47 48 49 50
000
ASUS43 KIND 251859
RWRIN

WEATHER ROUNDUP FOR INDIANA
NATIONAL WEATHER SERVICE INDIANAPOLIS IN
300 PM EDT THU MAY 25 2017

NOTE: "FAIR" INDICATES FEW OR NO CLOUDS BELOW 12,000 FEET WITH NO
SIGNIFICANT WEATHER AND/OR OBSTRUCTIONS TO VISIBILITY.

* - STATION DOES NOT REPORT WEATHER SUCH AS PRECIPITATION OR FOG.

+ - STATION NOT QUALITY CONTROLLED BY THE NATIONAL WEATHER SERVICE.
    USE DATA WITH CAUTION...ESPECIALLY DEWPOINT AND RELATIVE
    HUMIDITY OBSERVATIONS.

INZ001>003-010>013-019-020-252000-
NORTHWEST INDIANA

CITY           SKY/WX    TMP DP  RH WIND       PRES   REMARKS
GARY /AIRPORT/ MOSUNNY   64  54  68 N12G23    29.64S
MICHIGAN CITY+ CLOUDY    50  50 100 NW7       29.64S
MONTICELLO +   CLOUDY    59  55  84 NW18      29.62R
RENSSELAER +   CLOUDY    61  54  77 NW12G17   29.64R

$$

LMZ046-743>745-252000-
SOUTHERN LAKE MICHIGAN

STATION/POSITION TIME  TEMP    WIND        PRES    WAVE
                       AIR SEA DIR/SP/G            HT
                 (UTC) (F)     (DEG/KT/KT) (MB)    (FT)
BURNS HARBOR     1840   51     330/ 10/ 15 1004.4R
MICHIGAN CITY    1830   48     310/ 12/ 13   N/A
5NW MICH CITY    1850   48 51  320/ 12/ 16   N/A     4

$$

INZ004-005-014>016-021>024-252000-
NORTH CENTRAL INDIANA

CITY           SKY/WX    TMP DP  RH WIND       PRES   REMARKS
ELKHART        CLOUDY    59  55  88 NW6       29.57S
GOSHEN         CLOUDY    60  55  83 NW13      29.56R
SOUTH BEND     CLOUDY    58  55  90 NW13      29.60R

$$

INZ006>009-017-018-025>027-252000-
NORTHEAST INDIANA

CITY           SKY/WX    TMP DP  RH WIND       PRES   REMARKS
FORT WAYNE     CLOUDY    62  57  83 NW13      29.53S
KENDALLVILLE + CLOUDY    60  58  91 N12       29.55R

$$

INZ028-029-035-036-043>045-051>053-252000-
WEST CENTRAL INDIANA

CITY           SKY/WX    TMP DP  RH WIND       PRES   REMARKS
CRAWFORDSVL +  CLOUDY    63  57  82 W17       29.63R
GREENCASTLE +  CLOUDY    63  54  72 W8        29.64R
LAFAYETTE      CLOUDY    61  56  83 NW16      29.62R
TERRE HAUTE    CLOUDY    65  54  67 W14G26    29.66R

$$

INZ030>032-037>040-046>048-054>057-064-065-252000-
CENTRAL INDIANA

CITY           SKY/WX    TMP DP  RH WIND       PRES   REMARKS
ANDERSON       CLOUDY   N/A N/A N/A NW17      29.59R
COLUMBUS       CLOUDY    63  55  77 NW16G23   29.60R
INDIANAPOLIS   CLOUDY    62  55  77 NW15      29.61R
-EAGLE CREEK   CLOUDY    61  55  81 NW16G22   29.60R
KOKOMO +       CLOUDY    60  56  86 NW15G23   29.60R
SHELBYVILLE    CLOUDY    63  55  75 NW17G26   29.58R

$$

INZ033-034-041-042-049-050-058-059-252000-
EAST CENTRAL INDIANA

CITY           SKY/WX    TMP DP  RH WIND       PRES   REMARKS
MUNCIE         CLOUDY    61  57  87 NW15      29.56R
RICHMOND +     RAIN      61  59  94 NW12G21   29.53R

$$

INZ060-061-067>069-081>083-085>088-252000-
SOUTHWEST INDIANA

CITY           SKY/WX    TMP DP  RH WIND       PRES   REMARKS
EVANSVILLE     PTSUNNY   72  56  57 W10       29.70R
HUNTINGBURG *+ PTSUNNY   67  57  70 W15G23    29.68R

$$

INZ062-063-066-070>080-084-089>092-252000-
SOUTH CENTRAL AND SOUTHEAST INDIANA

CITY           SKY/WX    TMP DP  RH WIND       PRES   REMARKS
BLOOMINGTON    CLOUDY    63  54  72 W12G23    29.64R
MADISON *+     CLOUDY    61  55  82 W12       29.62R
SEYMOUR +      CLOUDY   N/A N/A N/A NW13G20   29.61R

$$




USA.gov is the U.S. government's official web portal to all federal, state and local government web resources and services.